Location: McFarlands Corners
(41.4117°N, 81.3382°W)
Time: 12:57:04
(UTC+00:00)

Transit 4A - Pass Details

Date: 18 February 2026
Orbit: 863 x 978 km, 66.8° (Epoch: 17 March)

Event Time Altitude Azimuth Distance (km) Brightness Sun altitude
Rises 18:04:59 0° 328° (NNW) 3,614 10.6 36.8°
Reaches altitude 10° 18:07:30 10° 328° (NNW) 2,681 10.0 36.8°
Maximum altitude 18:13:47 79° 243° (WSW) 988 8.9 36.6°
Drops below altitude 10° 18:20:08 10° 157° (SSE) 2,714 11.2 36.3°
Sets 18:22:42 0° 157° (SSE) 3,661 11.7 36.2°
